Home > Weather > Hanoi > Past weeks

Flag for Vietnam Past Weather in Hanoi, Vietnam — Yesterday and Last 2 Weeks

Now
86 °F

Light rain. Scattered clouds.


Feels Like: 99 °F
Forecast: 80 / 83 °F
Wind: 3 mph from North

Location: Ha Noi Airport

Current Time: Jul 27, 2016 at 8:13:46 AM

Latest Report: Jul 27, 2016 at 7:30 AM


Visibility: 4 mi

Pressure: 29.71 "Hg

Humidity: 79%

Dew Point: 79 °F

Location of HanoiLocation

Past Weather in Hanoi — Graph

°F

Hanoi Temperature Yesterday

Maximum temperature yesterday: 97 °F (at 1:00 PM)
Minimum temperature yesterday: 82 °F (at 3:30 AM)
Average temperature yesterday: 90 °F

High & Low Weather Summary for the Past Weeks

 TemperatureHumidityPressure
High99 °F (Jul 16, 4:00 PM)94% (Jul 12, 7:00 AM)29.83 "Hg (Jul 12, 7:00 AM)
Low75 °F (Jul 23, 7:00 PM)42% (Jul 18, 2:30 PM)29.50 "Hg (Jul 12, 3:00 PM)
Average87 °F75%29.67 "Hg
* Reported Jul 12 7:00 AM — Jul 27 7:00 AM, Hanoi, Weather by CustomWeather, © 2016

Note: Actual official high and low records may vary slightly from our data, if they occured in-between our weather recording intervals... More about our weather records

Advertising

Hanoi Weather History for the Previous 24 Hours

Scroll right to see more
 ConditionsComfort  
Time TempWeatherWind HumidityBarometerVisibility
7:00 AM
Wed, Jul 27
86 °FScattered clouds.6 mph79%29.71 "Hg4 mi
6:30 AM84 °FScattered clouds.5 mph84%29.68 "Hg4 mi
6:00 AM84 °FFog.5 mph89%29.68 "Hg3 mi
5:30 AM84 °FPassing clouds.3 mph89%29.65 "Hg4 mi
5:00 AM84 °FPassing clouds.3 mph84%29.65 "Hg4 mi
4:30 AM84 °FPassing clouds.6 mph84%29.65 "Hg4 mi
4:00 AM84 °FLight rain. Passing clouds.5 mph84%29.65 "Hg4 mi
3:30 AM86 °FPassing clouds.3 mph79%29.65 "Hg4 mi
3:00 AM86 °FPassing clouds.3 mph79%29.68 "Hg6 mi
2:30 AM86 °FPassing clouds.5 mph75%29.68 "HgN/A
2:00 AM86 °FPassing clouds.7 mph70%29.65 "HgN/A
1:30 AM88 °FPassing clouds.6 mph66%29.65 "HgN/A
1:00 AM88 °FClear.6 mph66%29.65 "Hg6 mi
12:30 AM88 °FPassing clouds.6 mph66%29.65 "HgN/A
12:00 AM88 °FPassing clouds.8 mph66%29.65 "HgN/A
11:30 PM
Tue, Jul 26
88 °FPassing clouds.7 mph66%29.68 "HgN/A
11:00 PM90 °FClear.8 mph63%29.68 "Hg10 mi
10:30 PM90 °FClear.12 mph67%29.71 "Hg10 mi
10:00 PM90 °FPassing clouds.13 mph67%29.71 "HgN/A
9:30 PM91 °FPassing clouds.8 mph56%29.68 "HgN/A
9:00 PM91 °FClear.6 mph56%29.68 "Hg5 mi
8:30 PM91 °FClear.6 mph56%29.65 "Hg6 mi
8:00 PM91 °FPassing clouds.6 mph56%29.65 "HgN/A
7:30 PM93 °FClear.2 mph49%29.65 "Hg10 mi
7:00 PM93 °FClear.5 mph49%29.62 "Hg10 mi
6:30 PM95 °FSunny.5 mph44%29.62 "Hg10 mi
6:00 PM95 °FSunny.5 mph44%29.62 "Hg10 mi
5:30 PM95 °FSunny.7 mph44%29.62 "Hg10 mi
5:00 PM97 °FSunny.3 mph44%29.62 "Hg10 mi
4:30 PM97 °FPassing clouds.3 mph42%29.62 "HgN/A
4:00 PM97 °FPassing clouds.6 mph47%29.62 "HgN/A
3:30 PM97 °FSunny.3 mph44%29.62 "Hg10 mi
3:00 PM97 °FPassing clouds.3 mph44%29.65 "HgN/A
2:30 PM95 °FPassing clouds.5 mph47%29.65 "HgN/A
2:00 PM97 °FSunny.6 mph44%29.65 "Hg10 mi
1:30 PM97 °FPassing clouds.2 mph44%29.68 "HgN/A
1:00 PM97 °FPassing clouds.3 mph44%29.68 "HgN/A
12:30 PM95 °FPassing clouds.5 mph47%29.71 "HgN/A
12:00 PM95 °FPassing clouds.6 mph47%29.74 "HgN/A
11:30 AM93 °FSunny.5 mph49%29.74 "Hg10 mi
11:00 AM93 °FPassing clouds.5 mph49%29.74 "HgN/A
10:30 AM93 °FSunny.3 mph49%29.74 "Hg10 mi
10:00 AM91 °FPassing clouds.3 mph52%29.77 "HgN/A
9:30 AM91 °FPassing clouds.3 mph59%29.77 "HgN/A
9:00 AM90 °FPassing clouds.7 mph67%29.77 "HgN/A
8:30 AM90 °FPassing clouds.6 mph75%29.77 "HgN/A
8:00 AM86 °FPassing clouds.7 mph84%29.77 "Hg4 mi
Weather by CustomWeather, © 2016

See weather overviewHow to use our weather pages